Location: Newark
(34.9500°N, 139.9667°E)
Time: 20:38:46
(UTC+00:00)

Transit 2A - Pass Details

Date: 17 December 2019
Orbit: 601 x 958 km, 66.7° (Epoch: 24 January)

Event Time Altitude Azimuth Distance (km) Brightness Sun altitude
Rises 06:40:44 0° 307° (NW) 2,945 9.3 7.8°
Reaches altitude 10° 06:44:17 10° 278° (W) 2,093 9.1 7.2°
Maximum altitude 06:46:12 12° 253° (WSW) 1,972 9.9 6.9°
Drops below altitude 10° 06:48:10 10° 229° (SW) 2,169 11.2 6.6°
Sets 06:52:02 0° 201° (SSW) 3,175 10.2 5.9°
